DELTA 1 DEB, 26844

Orbit data source: Space-Track

DELTA 1 DEB, 26844 is space debris in SSO originally from a launch on Thu, 12 Jun 1975 UTC launched from the Air Force Western Test Range (AFWTR). Debris objects in space refer to the collection of defunct objects orbiting the Earth. Examples of debris include non-operational satellites, rocket bodies, and fragments generated from explosions, collisions, or faulty payload assembly.

Loading next visibility...
Identifier
26844, 1975-052KY
Orbit
SSO
Country
Flag of USUS
Related business
Manufacturer
Unknown
Mission
Spacecraft
Bus & Motor
Unknown
Mass
Unknown
Launch date (UTC)
1975-06-12 (51 years ago)
Launch vehicle
Unknown
Launch site
Air Force Western Test Range (AFWTR)
Object type
Payload
Rocket body
Debris
Shape & HBR
Unknown shape, 0.1 m
Radar Cross Section
Small (<0.1 m²)

Expand to show TLE details & history
Last TLE update: 2 days ago

TLE from 2 days ago
0 DELTA 1 DEB
1 26844U 75052KY  26171.42481955  .00000239  00000-0  36805-3 0  9997
2 26844  99.7570  96.1364 0047889  73.7394 352.2216 13.61608859693399
Epoch: 2026-06-20T10:11Z
TLE epoch observation values (Epoch: 2026-06-20T10:11:44.409Z)
Latitude
64.1861°
Longitude
13.85119°
Altitude
1,005.676 km
Speed
7.372 km/s
True Right ascension
05h 01m 42s
True Declination
64° 03' 20"
Sunlit
Object was in daylight at epoch
Visualization orbit readout
Latitude
Unknown
Longitude
Unknown
Altitude
Unknown
Speed
Unknown
Apparent Right ascension
Unknown
Apparent Declination
Unknown
Sunlit
N/A
Visualization observer readout
Local Sidereal Time
15:44:36
Azimuth
Unknown
Elevation
Unknown
Doppler factor
Unknown
Orbital elements
Apogee altitude
1,062.603 km
Perigee altitude
991.676 km
Semi-major axis
7,405.277 km
Eccentricity
0.00479
Inclination
99.757°
RAAN
96.1364°
Arg. of periapsis
73.7394°
True anomaly
352.14689°
Mean anomaly
352.2216°
Eccentric anomaly
352.18429°
Mean motion
3.40589 °/min
Orbital period
105.7 mins
BSTAR
0.00036805
Loading maneuver chart data...
Computing Atmospheric mass density...

Documentation

Showing up to 5 results
|